Showing default

DIADEME 1, 2674

Orbit data source: Space-Track

DIADEME 1, 2674 is a payload satellite owned by CNES (FR) in LEO that was launched on Wed, 08 Feb 1967 UTC via a DIAMANT A launch vehicle from the Hamma Guira Space Track Range (HGSTR). Payload-class satellites include a variety of spacecraft equipped with specific instruments for various scientific and technological missions. These include communications satellites like Starlink; space stations such as the ISS; scientific satellites like the Hubble; Earth observation satellites from companies like Planet Labs, Umbra, and HawkEye 360; GPS; miniature CubeSats for education and research; and military/defense satellites.

Loading next visibility...
Identifier
2674, 1967-011A
Orbit
LEO
Country
Flag of FRFR
Related business
Manufacturer
CNES
Mission
Spacecraft
Bus & Motor
D-1, Unknown motor
Mass
23 kg wet, 23 kg dry
Launch date (UTC)
1967-02-08 (59 years ago)
Launch vehicle
DIAMANT A
Launch site
Hamma Guira Space Track Range (HGSTR)
Object type
Payload
Rocket body
Debris
Shape & HBR
Unknown
Radar Cross Section
Medium (>0.1 m² and <1 m²)

Expand to show TLE details & history
Last TLE update: 11 hours ago

TLE from 11 hours ago
0 DIADEME 1
1 02674U 67011A   26034.15351550  .00008382  00000-0  92263-3 0  9990
2 02674  39.9171 316.6649 0207727  45.8148 315.9500 14.73112055 70325
Epoch: 2026-02-03T03:41Z
TLE epoch observation values (Epoch: 2026-02-03T03:41:03.739Z)
Latitude
-0.00002°
Longitude
128.06076°
Altitude
547.166 km
Speed
7.646 km/s
True Right ascension
21h 06m 39s
True Declination
0° 00' 00"
Sunlit
Object was in daylight at epoch
Visualization orbit readout
Latitude
Unknown
Longitude
Unknown
Altitude
Unknown
Speed
Unknown
Apparent Right ascension
Unknown
Apparent Declination
Unknown
Sunlit
N/A
Visualization observer readout
Local Sidereal Time
16:31:46
Azimuth
Unknown
Elevation
Unknown
Doppler factor
Unknown
Orbital elements
Apogee altitude
799.62 km
Perigee altitude
507.486 km
Semi-major axis
7,031.69 km
Eccentricity
0.02077
Inclination
39.9171°
RAAN
316.6649°
Arg. of periapsis
45.8148°
True anomaly
314.26375°
Mean anomaly
315.95°
Eccentric anomaly
315.11003°
Mean motion
3.6809 °/min
Orbital period
97.8 mins
BSTAR
0.00092263
Loading maneuver chart data...
Computing Atmospheric mass density...

Documentation

Showing up to 5 results
|